[TLELIST] Archives

 

[list_settings.list_name] Current TLEs

May 23rd 2021 PDT

HST 1 20580U 90037B 21142.94531856 .00000559 00000-0 22826-4 0 9998 2 20580 28.4694 233.8607 0002753 143.3885 20.4908 15.09644880507402 ISS (ZARYA) 1 25544U 98067A 21143.40149609 .00018167 00000-0 33793-3 0 9995 2 25544 51.6410 105.3197 0003184 19.9866 125.2985 15.48931543284751 CXO 1 25867U 99040B 21144.30864911 .00000689 00000-0 00000-0 0 9997 2 25867 55.6498 256.1702 8285594 226.4345 359.9014 0.37811191 10347 ____________________________________________________________________ These 2-Line ...Continue Reading

[list_settings.list_name] Current TLEs

May 22nd 2021 PDT

HST 1 20580U 90037B 21141.68015622 .00000561 00000-0 22971-4 0 9990 2 20580 28.4695 242.2320 0002801 130.3955 344.0487 15.09643809507000 ISS (ZARYA) 1 25544U 98067A 21141.97474461 -.00000450 00000-0 00000+0 0 9990 2 25544 51.6422 112.3779 0003628 13.3545 90.9576 15.48906521284531 CXO 1 25867U 99040B 21144.30864911 .00000689 00000-0 00000-0 0 9997 2 25867 55.6498 256.1702 8285594 226.4345 359.9014 0.37811191 10347 ____________________________________________________________________ These 2-Line ...Continue Reading

[list_settings.list_name] Current TLEs

May 21st 2021 PDT

HST 1 20580U 90037B 21140.69422488 .00000593 00000-0 24931-4 0 9995 2 20580 28.4696 248.7554 0002832 120.6490 24.9140 15.09643058506859 ISS (ZARYA) 1 25544U 98067A 21141.46601005 .00020261 00000-0 37585-3 0 9993 2 25544 51.6432 114.8910 0003179 14.4805 131.2297 15.48930794284457 CXO 1 25867U 99040B 21141.66268120 .00000834 00000-0 00000-0 0 9995 2 25867 55.7558 256.3334 8284936 226.3930 359.7354 0.37813119 10332 ____________________________________________________________________ These 2-Line ...Continue Reading

[list_settings.list_name] Current TLEs

May 20th 2021 PDT

HST 1 20580U 90037B 21139.76556103 .00000604 00000-0 25600-4 0 9990 2 20580 28.4697 254.9000 0002844 111.4005 17.1347 15.09642290506713 ISS (ZARYA) 1 25544U 98067A 21140.23141564 .00001480 00000-0 35000-4 0 9999 2 25544 51.6437 120.9949 0003227 21.1871 75.5686 15.49025569284261 CXO 1 25867U 99040B 21141.66268120 .00000834 00000-0 00000-0 0 9995 2 25867 55.7558 256.3334 8284936 226.3930 359.7354 0.37813119 10332 ____________________________________________________________________ These 2-Line ...Continue Reading

[list_settings.list_name] Current TLEs

May 19th 2021 PDT

HST 1 20580U 90037B 21138.77336396 .00000588 00000-0 24596-4 0 9994 2 20580 28.4698 261.4649 0002855 101.5825 23.9581 15.09641260506562 ISS (ZARYA) 1 25544U 98067A 21139.30500730 .00001470 00000-0 34810-4 0 9996 2 25544 51.6434 125.5774 0003226 18.4478 308.7946 15.49021808284112 CXO 1 25867U 99040B 21141.66268122 .00000834 00000-0 00000-0 0 9997 2 25867 55.7558 256.3334 8284942 226.3929 359.7355 0.37813092 10338 ____________________________________________________________________ These 2-Line ...Continue Reading

[list_settings.list_name] Current TLEs

May 18th 2021 PDT

HST 1 20580U 90037B 21136.72697560 .00000561 00000-0 23009-4 0 9999 2 20580 28.4700 275.0048 0002861 81.1938 60.7791 15.09639176506256 ISS (ZARYA) 1 25544U 98067A 21138.49799818 .00001435 00000-0 34181-4 0 9994 2 25544 51.6434 129.5692 0003126 15.7735 128.2370 15.49018856283990 CXO 1 25867U 99040B 21139.01841356 .00000875 00000-0 00000-0 0 9994 2 25867 55.8404 256.4682 8281108 226.3496 359.8597 0.37807566 10323 ____________________________________________________________________ These 2-Line ...Continue Reading

[list_settings.list_name] Current TLEs

May 17th 2021 PDT

HST 1 20580U 90037B 21136.72697560 .00000561 00000-0 23009-4 0 9999 2 20580 28.4700 275.0048 0002861 81.1938 60.7791 15.09639176506256 ISS (ZARYA) 1 25544U 98067A 21137.40145537 .00001439 00000-0 34257-4 0 9995 2 25544 51.6433 134.9944 0003107 11.2543 133.8911 15.49014609283823 CXO 1 25867U 99040B 21139.01841356 .00000875 00000-0 00000-0 0 9994 2 25867 55.8404 256.4682 8281108 226.3496 359.8597 0.37807566 10323 ____________________________________________________________________ These 2-Line ...Continue Reading

[list_settings.list_name] Current TLEs

May 16th 2021 PDT

HST 1 20580U 90037B 21135.80236027 .00000587 00000-0 24575-4 0 9991 2 20580 28.4701 281.1226 0002860 71.7715 75.2317 15.09638499506117 ISS (ZARYA) 1 25544U 98067A 21135.83782071 .00001818 00000-0 41138-4 0 9997 2 25544 51.6435 142.7293 0003154 4.9000 54.9750 15.49010084283588 CXO 1 25867U 99040B 21136.37341302 .00000814 00000-0 00000-0 0 9999 2 25867 55.8942 256.5647 8276676 226.3266 359.8626 0.37804618 10329 ____________________________________________________________________ These 2-Line ...Continue Reading

[list_settings.list_name] Current TLEs

May 15th 2021 PDT

HST 1 20580U 90037B 21134.59933003 .00000550 00000-0 22322-4 0 9992 2 20580 28.4702 289.0826 0002838 59.7162 16.2199 15.09637244505937 ISS (ZARYA) 1 25544U 98067A 21135.19891203 .00001788 00000-0 40596-4 0 9997 2 25544 51.6434 145.8883 0003113 3.7625 90.9322 15.49007115283486 CXO 1 25867U 99040B 21136.37341302 .00000814 00000-0 00000-0 0 9999 2 25867 55.8942 256.5647 8276676 226.3266 359.8626 0.37804618 10329 ____________________________________________________________________ These 2-Line ...Continue Reading

[list_settings.list_name] Current TLEs

May 14th 2021 PDT

HST 1 20580U 90037B 21134.15254779 .00000556 00000-0 22674-4 0 9996 2 20580 28.4703 292.0388 0002836 55.0012 107.9965 15.09636946506079 ISS (ZARYA) 1 25544U 98067A 21134.36910038 .00001716 00000-0 39297-4 0 9990 2 25544 51.6436 149.9938 0003140 359.8449 144.4178 15.49003230283357 CXO 1 25867U 99040B 21136.37260438 .00000814 00000-0 00000-0 0 9999 2 25867 55.8943 256.5648 8276672 226.3266 359.7525 0.37804628 10314 ____________________________________________________________________ These 2-Line ...Continue Reading
  • This mailing list is a public mailing list - anyone may join or leave, at any time.
  • This mailing list is announce-only.

International Space Station (ISS) / Hubble Space Telescope (HST) / Chandra X-Ray Observatory Orbital Data via EMAIL

Privacy Policy:

Private list